NovaSAR-S

operational
NORAD ID: 43619 Int'l Des: 2018-071 Owner: SSTLA Country: UK
LEOCIRCULARRETROGRADESSO

About NovaSAR-S

Description loading...

Live Position

Loading 3D Globe...

Upcoming Passes

Altitude History

Altitude vs Time

uPlot chart will show altitude changes over time

Two-Line Element Set

1 43619U 18071B 26063.12454910 .00001005 00000-0 93837-4 0 9993
2 43619 97.5231 299.6554 0002158 100.2104 259.9361 14.96265201407222
Epoch: Mar 4, 2026 • Age: 23 hours

Current Status

Altitude 605.7 km
Velocity 7.55 km/s
Sub-Earth Point -68.89°S, 52.59°W
Launch Date Sep 16, 2018
Age 7.4 years
Type other

Technical Details

Classification Payload
Mass 445.00 kg
Dry Mass 400.00 kg
Total Mass 445.00 kg
Length 3.00 m
Diameter 1.00 m
Span 3.00 m
Shape Box tri
Manufacturer SSTLA
Bus Type NovaSAR-S
Phase Status In Orbit
Owner/State SSTLA/UK

Large Constellations

Loading constellations...